Location: Cella
(44.7333°N, 10.5667°E)
Time: 20:13:51
(UTC+00:00)

MOS 1 - Pass Details

Date: 03 March 2021
Orbit: 878 x 891 km, 99.1° (Epoch: 17 April)

Event Time Altitude Azimuth Distance (km) Brightness Sun altitude
Exits shadow 19:26:08 37° 171° (S) 1,354 5.0 -25.1°
Maximum altitude 19:28:32 83° 255° (WSW) 900 4.3 -25.5°
Drops below altitude 10° 19:34:16 10° 344° (NNW) 2,558 7.1 -26.4°
Sets 19:36:40 0° 345° (NNW) 3,499 7.9 -26.8°
